User: anonymous   Login
Location: Bijele Vode
(45.2833°N, 16.2000°E)
Time: 05:06:41
(UTC+00:00)
Language:

Cosmos 1437 - Orbit

View from above orbital plane
View from above orbital plane
View from above satellite
View from above satellite

Ground track
Ground track

The orbit data is extracted from the following two-line orbital elements,

1 13770U 83003A   20333.55417202 +.00023365 +00000-0 +20927-3 0  9991
2 13770 081.1585 023.1072 0003318 080.8610 279.3022 15.68169621082618
Epoch (UTC): 28 November 2020 13:18:00
Eccentricity: 0.0003318
inclination: 81.1585°
perigee height: 362 km
apogee height: 366 km
right ascension of ascending node: 23.1072°
argument of perigee: 80.8610°
revolutions per day: 15.68169621
mean anomaly at epoch: 279.3022°
orbit number at epoch: 8261

The dashed part of the orbit path shows where the satellite is in the earth's shadow,  

DLR